Location: Bathsheba
(13.2167°N, 59.5167°W)
Time: 22:41:22
(UTC+00:00)

Cosmos 158 Rocket - Pass Details

Date: 18 September 2020
Orbit: 699 x 793 km, 74.0° (Epoch: 20 October)

Event Time Altitude Azimuth Distance (km) Brightness Sun altitude
Rises 22:41:15 0° 358° (N) 3,201 7.3 -11.7°
Reaches altitude 10° 22:43:46 10° 5° (N) 2,260 6.4 -12.3°
Maximum altitude 22:48:34 41° 75° (ENE) 1,049 4.3 -13.5°
Drops below altitude 10° 22:53:15 10° 146° (SE) 2,202 6.0 -14.6°
Enters shadow 22:54:00 - 148° (SSE) 2,479 6.3 -14.8°
